TimeCDT,TemperatureF,Dew PointF,Humidity,Sea Level PressureIn,VisibilityMPH,Wind Direction,Wind SpeedMPH,Gust SpeedMPH,PrecipitationIn,Events,Conditions,WindDirDegrees,DateUTC
12:56 AM,33.1,26.1,75,30.35,10.0,WNW,5.8,-,N/A,,Clear,290,2012-10-05 05:56:00
1:56 AM,30.9,25.0,79,30.35,10.0,West,3.5,-,N/A,,Clear,270,2012-10-05 06:56:00
2:56 AM,28.9,24.1,82,30.35,10.0,West,5.8,-,N/A,,Clear,280,2012-10-05 07:56:00
3:56 AM,30.0,25.0,82,30.33,10.0,Calm,Calm,-,N/A,,Clear,0,2012-10-05 08:56:00
4:56 AM,32.0,26.1,79,30.34,10.0,WSW,6.9,-,N/A,,Clear,250,2012-10-05 09:56:00
5:56 AM,30.0,24.1,79,30.33,10.0,WNW,4.6,-,N/A,,Clear,290,2012-10-05 10:56:00
6:56 AM,33.1,26.1,75,30.35,10.0,WSW,8.1,-,N/A,,Clear,250,2012-10-05 11:56:00
7:56 AM,34.0,26.1,73,30.36,10.0,West,5.8,-,N/A,,Mostly Cloudy,280,2012-10-05 12:56:00
8:56 AM,36.0,27.0,70,30.37,10.0,WNW,6.9,-,N/A,,Scattered Clouds,300,2012-10-05 13:56:00
9:56 AM,37.9,26.1,62,30.38,10.0,NW,9.2,-,N/A,,Mostly Cloudy,310,2012-10-05 14:56:00
10:56 AM,39.0,26.1,60,30.40,10.0,WNW,9.2,-,N/A,,Overcast,290,2012-10-05 15:56:00
11:56 AM,41.0,25.0,53,30.39,10.0,NW,12.7,-,N/A,,Partly Cloudy,320,2012-10-05 16:56:00
12:56 PM,46.9,24.1,41,30.37,10.0,NW,16.1,21.9,N/A,,Clear,310,2012-10-05 17:56:00
1:56 PM,48.0,21.9,36,30.34,10.0,NNW,17.3,21.9,N/A,,Clear,340,2012-10-05 18:56:00
2:56 PM,50.0,21.9,33,30.31,10.0,North,15.0,25.3,N/A,,Clear,350,2012-10-05 19:56:00
3:56 PM,50.0,21.9,33,30.30,10.0,West,11.5,20.7,N/A,,Clear,280,2012-10-05 20:56:00
4:56 PM,52.0,21.0,30,30.28,10.0,NNW,15.0,-,N/A,,Clear,330,2012-10-05 21:56:00
5:56 PM,51.1,21.0,31,30.29,10.0,NNW,13.8,-,N/A,,Clear,340,2012-10-05 22:56:00
6:56 PM,46.9,21.9,37,30.30,10.0,NNW,12.7,-,N/A,,Clear,330,2012-10-05 23:56:00
7:56 PM,44.1,19.9,38,30.32,10.0,NW,10.4,-,N/A,,Clear,310,2012-10-06 00:56:00
8:56 PM,41.0,19.9,43,30.33,10.0,WNW,6.9,-,N/A,,Clear,300,2012-10-06 01:56:00
9:56 PM,37.9,19.9,48,30.34,10.0,WNW,6.9,-,N/A,,Clear,300,2012-10-06 02:56:00
10:56 PM,37.9,21.0,51,30.35,10.0,West,6.9,-,N/A,,Mostly Cloudy,280,2012-10-06 03:56:00
11:56 PM,39.0,21.0,49,30.36,10.0,NNW,8.1,-,N/A,,Overcast,330,2012-10-06 04:56:00